Year,Month,Day,Hour,Minute,Value (Times are PST for temperature in C)
2015,08,05,00,00,16.80
2015,08,05,00,01,16.80
2015,08,05,00,02,16.80
2015,08,05,00,03,16.80
2015,08,05,00,04,16.80
2015,08,05,00,05,16.80
2015,08,05,00,06,16.80
2015,08,05,00,07,16.80
2015,08,05,00,08,16.80
2015,08,05,00,09,16.80
2015,08,05,00,10,16.80
2015,08,05,00,11,16.80
2015,08,05,00,12,16.80
2015,08,05,00,13,16.80
2015,08,05,00,14,16.80
2015,08,05,00,15,16.80
2015,08,05,00,16,16.80
2015,08,05,00,17,16.80
2015,08,05,00,18,16.80
2015,08,05,00,19,16.80
2015,08,05,00,20,16.80
2015,08,05,00,21,16.80
2015,08,05,00,22,16.80
2015,08,05,00,23,16.80
2015,08,05,00,24,16.80
2015,08,05,00,25,16.80
2015,08,05,00,26,16.80
2015,08,05,00,27,16.80
2015,08,05,00,28,16.70
2015,08,05,00,29,16.70
2015,08,05,00,30,16.70
2015,08,05,00,31,16.70
2015,08,05,00,32,16.70
2015,08,05,00,33,16.70
2015,08,05,00,34,16.70
2015,08,05,00,35,16.70
2015,08,05,00,36,16.70
2015,08,05,00,37,16.80
2015,08,05,00,38,16.80
2015,08,05,00,39,16.80
2015,08,05,00,40,16.80
2015,08,05,00,41,16.80
2015,08,05,00,42,16.80
2015,08,05,00,43,16.80
2015,08,05,00,44,16.80
2015,08,05,00,45,16.80
2015,08,05,00,46,16.80
2015,08,05,00,47,16.80
2015,08,05,00,48,16.80
2015,08,05,00,49,16.80
2015,08,05,00,50,16.80
2015,08,05,00,51,16.80
2015,08,05,00,52,16.80
2015,08,05,00,53,16.80
2015,08,05,00,54,16.80
2015,08,05,00,55,16.80
2015,08,05,00,56,16.80
2015,08,05,00,57,16.80
2015,08,05,00,58,16.80
2015,08,05,00,59,16.70
2015,08,05,01,00,16.70
2015,08,05,01,01,16.70
2015,08,05,01,02,16.70
2015,08,05,01,03,16.70
2015,08,05,01,04,16.70
2015,08,05,01,05,16.70
2015,08,05,01,06,16.70
2015,08,05,01,07,16.70
2015,08,05,01,08,16.70
2015,08,05,01,09,16.70
2015,08,05,01,10,16.70
2015,08,05,01,11,16.60
2015,08,05,01,12,16.60
2015,08,05,01,13,16.60
2015,08,05,01,14,16.60
2015,08,05,01,15,16.60
2015,08,05,01,16,16.60
2015,08,05,01,17,16.60
2015,08,05,01,18,16.60
2015,08,05,01,19,16.60
2015,08,05,01,20,16.60
2015,08,05,01,21,16.60
2015,08,05,01,22,16.60
2015,08,05,01,23,16.60
2015,08,05,01,24,16.60
2015,08,05,01,25,16.60
2015,08,05,01,26,16.60
2015,08,05,01,27,16.60
2015,08,05,01,28,16.60
2015,08,05,01,29,16.60
2015,08,05,01,30,16.60
2015,08,05,01,31,16.60
2015,08,05,01,32,16.60
2015,08,05,01,33,16.60
2015,08,05,01,34,16.60
2015,08,05,01,35,16.60
2015,08,05,01,36,16.60
2015,08,05,01,37,16.60
2015,08,05,01,38,16.60
2015,08,05,01,39,16.60
2015,08,05,01,40,16.60
2015,08,05,01,41,16.60
2015,08,05,01,42,16.60
2015,08,05,01,43,16.60
2015,08,05,01,44,16.60
2015,08,05,01,45,16.60
2015,08,05,01,46,16.60
2015,08,05,01,47,16.60
2015,08,05,01,48,16.60
2015,08,05,01,49,16.60
2015,08,05,01,50,16.60
2015,08,05,01,51,16.60
2015,08,05,01,52,16.60
2015,08,05,01,53,16.60
2015,08,05,01,54,16.60
2015,08,05,01,55,16.60
2015,08,05,01,56,16.60
2015,08,05,01,57,16.60
2015,08,05,01,58,16.60
2015,08,05,01,59,16.60
2015,08,05,02,00,16.60
2015,08,05,02,01,16.60
2015,08,05,02,02,16.60
2015,08,05,02,03,16.60
2015,08,05,02,04,16.60
2015,08,05,02,05,16.60
2015,08,05,02,06,16.60
2015,08,05,02,07,16.60
2015,08,05,02,08,16.60
2015,08,05,02,09,16.60
2015,08,05,02,10,16.50
2015,08,05,02,11,16.60
2015,08,05,02,12,16.50
2015,08,05,02,13,16.60
2015,08,05,02,14,16.60
2015,08,05,02,15,16.60
2015,08,05,02,16,16.60
2015,08,05,02,17,16.60
2015,08,05,02,18,16.50
2015,08,05,02,19,16.60
2015,08,05,02,20,16.60
2015,08,05,02,21,16.60
2015,08,05,02,22,16.60
2015,08,05,02,23,16.60
2015,08,05,02,24,16.60
2015,08,05,02,25,16.60
2015,08,05,02,26,16.60
2015,08,05,02,27,16.60
2015,08,05,02,28,16.60
2015,08,05,02,29,16.50
2015,08,05,02,30,16.50
2015,08,05,02,31,16.50
2015,08,05,02,32,16.60
2015,08,05,02,33,16.50
2015,08,05,02,34,16.50
2015,08,05,02,35,16.50
2015,08,05,02,36,16.50
2015,08,05,02,37,16.50
2015,08,05,02,38,16.50
2015,08,05,02,39,16.50
2015,08,05,02,40,16.50
2015,08,05,02,41,16.50
2015,08,05,02,42,16.50
2015,08,05,02,43,16.50
2015,08,05,02,44,16.40
2015,08,05,02,45,16.40
2015,08,05,02,46,16.40
2015,08,05,02,47,16.40
2015,08,05,02,48,16.40
2015,08,05,02,49,16.40
2015,08,05,02,50,16.40
2015,08,05,02,51,16.40
2015,08,05,02,52,16.40
2015,08,05,02,53,16.40
2015,08,05,02,54,16.40
2015,08,05,02,55,16.40
2015,08,05,02,56,16.40
2015,08,05,02,57,16.40
2015,08,05,02,58,16.40
2015,08,05,02,59,16.40
2015,08,05,03,00,16.40
2015,08,05,03,01,16.40
2015,08,05,03,02,16.40
2015,08,05,03,03,16.40
2015,08,05,04,02,16.40
2015,08,05,04,03,16.40
2015,08,05,04,04,16.40
2015,08,05,04,05,16.40
2015,08,05,04,06,16.40
2015,08,05,04,07,16.40
2015,08,05,04,08,16.40
2015,08,05,04,09,16.40
2015,08,05,04,10,16.40
2015,08,05,04,11,16.40
2015,08,05,04,12,16.40
2015,08,05,04,13,16.40
2015,08,05,04,14,16.40
2015,08,05,04,15,16.40
2015,08,05,04,16,16.40
2015,08,05,04,17,16.40
2015,08,05,04,18,16.40
2015,08,05,04,19,16.40
2015,08,05,04,20,16.40
2015,08,05,04,21,16.40
2015,08,05,04,22,16.40
2015,08,05,04,23,16.40
2015,08,05,04,24,16.40
2015,08,05,04,25,16.40
2015,08,05,04,26,16.40
2015,08,05,04,27,16.40
2015,08,05,04,28,16.40
2015,08,05,04,29,16.40
2015,08,05,04,30,16.40
2015,08,05,04,31,16.40
2015,08,05,04,32,16.30
2015,08,05,04,33,16.30
2015,08,05,04,34,16.30
2015,08,05,04,35,16.30
2015,08,05,04,36,16.30
2015,08,05,04,37,16.30
2015,08,05,04,38,16.30
2015,08,05,04,39,16.20
2015,08,05,04,40,16.20
2015,08,05,04,41,16.20
2015,08,05,04,42,16.20
2015,08,05,04,43,16.10
2015,08,05,04,44,16.10
2015,08,05,04,45,16.10
2015,08,05,04,46,16.10
2015,08,05,04,47,16.10
2015,08,05,04,48,16.00
2015,08,05,04,49,16.00
2015,08,05,04,50,16.00
2015,08,05,04,51,15.90
2015,08,05,04,52,15.90
2015,08,05,04,53,15.90
2015,08,05,04,54,15.80
2015,08,05,04,55,15.80
2015,08,05,04,56,15.80
2015,08,05,04,57,15.80
2015,08,05,04,58,15.80
2015,08,05,04,59,15.80
2015,08,05,05,00,15.80
2015,08,05,05,01,15.80
2015,08,05,05,02,15.70
2015,08,05,05,03,15.70
2015,08,05,05,04,15.70
2015,08,05,05,05,15.70
2015,08,05,05,06,15.70
2015,08,05,05,07,15.70
2015,08,05,05,08,15.60
2015,08,05,05,09,15.60
2015,08,05,05,10,15.60
2015,08,05,05,11,15.60
2015,08,05,05,12,15.60
2015,08,05,05,13,15.60
2015,08,05,05,14,15.50
2015,08,05,05,15,15.50
2015,08,05,05,16,15.50
2015,08,05,05,17,15.50
2015,08,05,05,18,15.50
2015,08,05,05,19,15.40
2015,08,05,05,20,15.40
2015,08,05,05,21,15.40
2015,08,05,05,22,15.30
2015,08,05,05,23,15.30
2015,08,05,05,24,15.30
2015,08,05,05,25,15.30
2015,08,05,05,26,15.30
2015,08,05,05,27,15.30
2015,08,05,05,28,15.20
2015,08,05,05,29,15.20
2015,08,05,05,30,15.20
2015,08,05,05,31,15.20
2015,08,05,05,32,15.20
2015,08,05,05,33,15.10
2015,08,05,05,34,15.10
2015,08,05,05,35,15.00
2015,08,05,05,36,15.00
2015,08,05,05,37,15.00
2015,08,05,05,38,14.90
2015,08,05,05,39,14.80
2015,08,05,05,40,14.80
2015,08,05,05,41,14.70
2015,08,05,05,42,14.70
2015,08,05,05,43,14.70
2015,08,05,05,44,14.60
2015,08,05,05,45,14.60
2015,08,05,05,46,14.60
2015,08,05,05,47,14.50
2015,08,05,05,48,14.50
2015,08,05,05,49,14.50
2015,08,05,05,50,14.50
2015,08,05,05,51,14.40
2015,08,05,05,52,14.40
2015,08,05,05,53,14.40
2015,08,05,05,54,14.30
2015,08,05,05,55,14.30
2015,08,05,05,56,14.30
2015,08,05,05,57,14.30
2015,08,05,05,58,14.30
2015,08,05,05,59,14.30
2015,08,05,06,00,14.30
2015,08,05,06,01,14.30
2015,08,05,06,02,14.30
2015,08,05,06,03,14.20
2015,08,05,06,04,14.20
2015,08,05,06,05,14.20
2015,08,05,06,06,14.20
2015,08,05,06,07,14.20
2015,08,05,06,08,14.20
2015,08,05,06,09,14.20
2015,08,05,06,10,14.10
2015,08,05,06,11,14.10
2015,08,05,06,12,14.10
2015,08,05,06,13,14.10
2015,08,05,06,14,14.10
2015,08,05,06,15,14.10
2015,08,05,06,16,14.10
2015,08,05,06,17,14.10
2015,08,05,06,18,14.10
2015,08,05,06,19,14.10
2015,08,05,06,20,14.10
2015,08,05,06,21,14.10
2015,08,05,06,22,14.10
2015,08,05,06,23,14.10
2015,08,05,06,24,14.10
2015,08,05,06,25,14.10
2015,08,05,06,26,14.00
2015,08,05,06,27,14.00
2015,08,05,06,28,14.00
2015,08,05,06,29,14.00
2015,08,05,06,30,14.00
2015,08,05,06,31,14.00
2015,08,05,06,32,14.00
2015,08,05,06,33,14.00
2015,08,05,06,34,14.00
2015,08,05,06,35,14.00
2015,08,05,06,36,14.00
2015,08,05,06,37,14.00
2015,08,05,06,38,14.00
2015,08,05,06,39,14.00
2015,08,05,06,40,14.00
2015,08,05,06,41,14.00
2015,08,05,06,42,14.00
2015,08,05,06,43,14.00
2015,08,05,06,44,14.00
2015,08,05,06,45,14.00
2015,08,05,06,46,13.90
2015,08,05,06,47,13.90
2015,08,05,06,48,13.90
2015,08,05,06,49,13.90
2015,08,05,06,50,13.90
2015,08,05,06,51,13.90
2015,08,05,06,52,13.90
2015,08,05,06,53,13.90
2015,08,05,06,54,13.90
2015,08,05,06,55,13.90
2015,08,05,06,56,13.90
2015,08,05,06,57,13.90
2015,08,05,06,58,13.90
2015,08,05,06,59,13.90
2015,08,05,07,00,13.90
2015,08,05,07,01,13.90
2015,08,05,07,02,13.90
2015,08,05,07,03,13.90
2015,08,05,07,04,13.90
2015,08,05,07,05,13.90
2015,08,05,07,06,13.90
2015,08,05,07,07,13.90
2015,08,05,07,08,13.90
2015,08,05,07,09,13.90
2015,08,05,07,10,13.80
2015,08,05,07,11,13.80
2015,08,05,07,12,13.80
2015,08,05,07,13,13.80
2015,08,05,07,14,13.80
2015,08,05,07,15,13.80
2015,08,05,07,16,13.80
2015,08,05,07,17,13.80
2015,08,05,07,18,13.80
2015,08,05,07,19,13.80
2015,08,05,07,20,13.80
2015,08,05,07,21,13.80
2015,08,05,07,22,13.80
2015,08,05,07,23,13.80
2015,08,05,07,24,13.80
2015,08,05,07,25,13.80
2015,08,05,07,26,13.80
2015,08,05,07,27,13.80
2015,08,05,07,28,13.80
2015,08,05,07,29,13.80
2015,08,05,07,30,13.80
2015,08,05,07,31,13.80
2015,08,05,07,32,13.80
2015,08,05,07,33,13.90
2015,08,05,07,34,13.90
2015,08,05,07,35,13.90
2015,08,05,07,36,13.90
2015,08,05,07,37,13.90
2015,08,05,07,38,13.90
2015,08,05,07,39,13.90
2015,08,05,07,40,13.90
2015,08,05,07,41,13.90
2015,08,05,07,42,13.90
2015,08,05,07,43,13.90
2015,08,05,07,44,13.90
2015,08,05,07,45,13.90
2015,08,05,07,46,13.90
2015,08,05,07,47,13.90
2015,08,05,07,48,13.90
2015,08,05,07,49,13.90
2015,08,05,07,50,14.00
2015,08,05,07,51,14.00
2015,08,05,07,52,14.00
2015,08,05,07,53,14.00
2015,08,05,07,54,14.00
2015,08,05,07,55,14.00
2015,08,05,07,56,14.00
2015,08,05,07,57,14.00
2015,08,05,07,58,14.00
2015,08,05,07,59,14.00
2015,08,05,08,00,14.00
2015,08,05,08,01,14.00
2015,08,05,08,02,14.00
2015,08,05,08,03,14.00
2015,08,05,08,04,14.00
2015,08,05,08,05,14.00
2015,08,05,08,06,14.10
2015,08,05,08,07,14.10
2015,08,05,08,08,14.10
2015,08,05,08,09,14.10
2015,08,05,08,10,14.10
2015,08,05,08,11,14.10
2015,08,05,08,12,14.10
2015,08,05,08,13,14.10
2015,08,05,08,14,14.10
2015,08,05,08,15,14.10
2015,08,05,08,16,14.10
2015,08,05,08,17,14.10
2015,08,05,08,18,14.10
2015,08,05,08,19,14.20
2015,08,05,08,20,14.20
2015,08,05,08,21,14.20
2015,08,05,08,22,14.20
2015,08,05,08,23,14.20
2015,08,05,08,24,14.20
2015,08,05,08,25,14.20
2015,08,05,08,26,14.20
2015,08,05,08,27,14.30
2015,08,05,08,28,14.30
2015,08,05,08,29,14.30
2015,08,05,08,30,14.30
2015,08,05,08,31,14.30
2015,08,05,08,32,14.30
2015,08,05,08,33,14.30
2015,08,05,08,34,14.30
2015,08,05,08,35,14.30
2015,08,05,08,36,14.40
2015,08,05,08,37,14.40
2015,08,05,08,38,14.40
2015,08,05,08,39,14.40
2015,08,05,08,40,14.40
2015,08,05,08,41,14.40
2015,08,05,08,42,14.40
2015,08,05,08,43,14.40
2015,08,05,08,44,14.40
2015,08,05,08,45,14.40
2015,08,05,08,46,14.40
2015,08,05,08,47,14.40
2015,08,05,08,48,14.30
2015,08,05,08,49,14.30
2015,08,05,08,50,14.30
2015,08,05,08,51,14.20
2015,08,05,08,52,14.20
2015,08,05,08,53,14.20
2015,08,05,08,54,14.20
2015,08,05,08,55,14.20
2015,08,05,08,56,14.20
2015,08,05,08,57,14.20
2015,08,05,08,58,14.20
2015,08,05,08,59,14.10
2015,08,05,09,00,14.10
2015,08,05,09,01,14.10
2015,08,05,09,02,14.10
2015,08,05,09,03,14.10
2015,08,05,09,04,14.10
2015,08,05,09,05,14.10
2015,08,05,09,06,14.00
2015,08,05,09,07,14.00
2015,08,05,09,08,14.00
2015,08,05,09,09,14.00
2015,08,05,09,10,14.00
2015,08,05,09,11,14.00
2015,08,05,09,12,13.90
2015,08,05,09,13,13.90
2015,08,05,09,14,13.90
2015,08,05,09,15,13.90
2015,08,05,09,16,13.90
2015,08,05,09,17,13.90
2015,08,05,09,18,13.90
2015,08,05,09,19,13.90
2015,08,05,09,20,13.90
2015,08,05,09,21,13.90
2015,08,05,09,22,13.90
2015,08,05,09,23,14.00
2015,08,05,09,24,14.00
2015,08,05,09,25,14.00
2015,08,05,09,26,14.10
2015,08,05,09,27,14.10
2015,08,05,09,28,14.10
2015,08,05,09,29,14.10
2015,08,05,09,30,14.20
2015,08,05,09,31,14.20
2015,08,05,09,32,14.20
2015,08,05,09,33,14.20
2015,08,05,09,34,14.20
2015,08,05,09,35,14.30
2015,08,05,09,36,14.30
2015,08,05,09,37,14.30
2015,08,05,09,38,14.30
2015,08,05,09,39,14.40
2015,08,05,09,40,14.40
2015,08,05,09,41,14.40
2015,08,05,09,42,14.50
2015,08,05,09,43,14.50
2015,08,05,09,44,14.50
2015,08,05,09,45,14.50
2015,08,05,09,46,14.50
2015,08,05,09,47,14.60
2015,08,05,09,48,14.60
2015,08,05,09,49,14.60
2015,08,05,09,50,14.70
2015,08,05,09,51,14.70
2015,08,05,09,52,14.70
2015,08,05,09,53,14.70
2015,08,05,09,54,14.70
2015,08,05,09,55,14.70
2015,08,05,09,56,14.70
2015,08,05,09,57,14.80
2015,08,05,09,58,14.80
2015,08,05,09,59,14.80
2015,08,05,10,00,14.80
2015,08,05,10,01,14.80
2015,08,05,10,02,14.80
2015,08,05,10,03,14.80
2015,08,05,10,04,14.90
2015,08,05,10,05,14.90
2015,08,05,10,06,14.90
2015,08,05,10,07,14.90
2015,08,05,10,08,14.90
2015,08,05,10,09,14.90
2015,08,05,10,10,14.90
2015,08,05,10,11,14.90
2015,08,05,10,12,14.90
2015,08,05,10,13,14.80
2015,08,05,10,14,14.80
2015,08,05,10,15,14.80
2015,08,05,10,16,14.80
2015,08,05,10,17,14.80
2015,08,05,10,18,14.80
2015,08,05,10,19,14.80
2015,08,05,10,20,14.80
2015,08,05,10,21,14.80
2015,08,05,10,22,14.80
2015,08,05,10,23,14.80
2015,08,05,10,24,14.90
2015,08,05,10,25,14.90
2015,08,05,10,26,14.90
2015,08,05,10,27,14.90
2015,08,05,10,28,14.90
2015,08,05,10,29,14.90
2015,08,05,10,30,14.90
2015,08,05,10,31,14.90
2015,08,05,10,32,14.90
2015,08,05,10,33,15.00
2015,08,05,10,34,15.00
2015,08,05,10,35,15.00
2015,08,05,10,36,15.00
2015,08,05,10,37,15.00
2015,08,05,10,38,15.00
2015,08,05,10,39,15.00
2015,08,05,10,40,15.00
2015,08,05,10,41,15.00
2015,08,05,10,42,15.10
2015,08,05,10,43,15.10
2015,08,05,10,44,15.10
2015,08,05,10,45,15.10
2015,08,05,10,46,15.10
2015,08,05,10,47,15.10
2015,08,05,10,48,15.10
2015,08,05,10,49,15.10
2015,08,05,10,50,15.10
2015,08,05,10,51,15.10
2015,08,05,10,52,15.10
2015,08,05,10,53,15.10
2015,08,05,10,54,15.10
2015,08,05,10,55,15.10
2015,08,05,10,56,15.20
2015,08,05,10,57,15.20
2015,08,05,10,58,15.20
2015,08,05,10,59,15.20
2015,08,05,11,00,15.20
2015,08,05,11,01,15.20
2015,08,05,11,02,15.20
2015,08,05,11,03,15.20
2015,08,05,11,04,15.20
2015,08,05,11,05,15.20
2015,08,05,11,06,15.20
2015,08,05,11,07,15.20
2015,08,05,11,08,15.20
2015,08,05,11,09,15.20
2015,08,05,11,10,15.30
2015,08,05,11,11,15.30
2015,08,05,11,12,15.30
2015,08,05,11,13,15.30
2015,08,05,11,14,15.30
2015,08,05,11,15,15.30
2015,08,05,11,16,15.30
2015,08,05,11,17,15.20
2015,08,05,11,18,15.20
2015,08,05,11,19,15.20
2015,08,05,11,20,15.20
2015,08,05,11,21,15.20
2015,08,05,11,22,15.20
2015,08,05,11,23,15.20
2015,08,05,11,24,15.20
2015,08,05,11,25,15.20
2015,08,05,11,26,15.20
2015,08,05,11,27,15.10
2015,08,05,11,28,15.10
2015,08,05,11,29,15.10
2015,08,05,11,30,15.10
2015,08,05,11,31,15.10
2015,08,05,11,32,15.10
2015,08,05,11,33,15.10
2015,08,05,11,34,15.10
2015,08,05,11,35,15.20
2015,08,05,11,36,15.20
2015,08,05,11,37,15.20
2015,08,05,11,38,15.20
2015,08,05,11,39,15.20
2015,08,05,11,40,15.20
2015,08,05,11,41,15.20
2015,08,05,11,42,15.30
2015,08,05,11,43,15.30
2015,08,05,11,44,15.30
2015,08,05,11,45,15.30
2015,08,05,11,46,15.30
2015,08,05,11,47,15.30
2015,08,05,11,48,15.30
2015,08,05,11,49,15.40
2015,08,05,11,50,15.40
2015,08,05,11,51,15.40
2015,08,05,11,52,15.40
2015,08,05,11,53,15.40
2015,08,05,11,54,15.40
2015,08,05,11,55,15.40
2015,08,05,11,56,15.50
2015,08,05,11,57,15.40
2015,08,05,11,58,15.40
2015,08,05,11,59,15.40
2015,08,05,12,00,15.40
2015,08,05,12,01,15.40
2015,08,05,12,02,15.40
2015,08,05,12,03,15.40
2015,08,05,12,04,15.40
2015,08,05,12,05,15.40
2015,08,05,12,06,15.50
2015,08,05,12,07,15.60
2015,08,05,12,08,15.60
2015,08,05,12,09,15.60
2015,08,05,12,10,15.60
2015,08,05,12,11,15.60
2015,08,05,12,12,15.60
2015,08,05,12,13,15.50
2015,08,05,12,14,15.50
2015,08,05,12,15,15.50
2015,08,05,12,16,15.50
2015,08,05,12,17,15.50
2015,08,05,12,18,15.50
2015,08,05,12,19,15.60
2015,08,05,12,20,15.60
2015,08,05,12,21,15.60
2015,08,05,12,22,15.60
2015,08,05,12,23,15.60
2015,08,05,12,24,15.60
2015,08,05,12,25,15.60
2015,08,05,12,26,15.60
2015,08,05,12,27,15.60
2015,08,05,12,28,15.60
2015,08,05,12,29,15.60
2015,08,05,12,30,15.60
2015,08,05,12,31,15.60
2015,08,05,12,32,15.60
2015,08,05,12,33,15.60
2015,08,05,12,34,15.60
2015,08,05,12,35,15.60
2015,08,05,12,36,15.60
2015,08,05,12,37,15.60
2015,08,05,12,38,15.60
2015,08,05,12,39,15.60
2015,08,05,12,40,15.60
2015,08,05,12,41,15.60
2015,08,05,12,42,15.70
2015,08,05,12,43,15.70
2015,08,05,12,44,15.70
2015,08,05,12,45,15.80
2015,08,05,12,46,15.80
2015,08,05,12,47,15.90
2015,08,05,12,48,15.90
2015,08,05,12,49,15.90
2015,08,05,12,50,15.90
2015,08,05,12,51,15.90
2015,08,05,12,52,15.90
2015,08,05,12,53,15.90
2015,08,05,12,54,16.00
2015,08,05,12,55,16.00
2015,08,05,12,56,16.10
2015,08,05,12,57,16.20
2015,08,05,12,58,16.20
2015,08,05,12,59,16.30
2015,08,05,13,00,16.40
2015,08,05,13,01,16.40
2015,08,05,13,02,16.50
2015,08,05,13,03,16.50
2015,08,05,13,04,16.60
2015,08,05,13,05,16.60
2015,08,05,13,06,16.70
2015,08,05,13,07,16.70
2015,08,05,13,08,16.70
2015,08,05,13,09,16.80
2015,08,05,13,10,16.80
2015,08,05,13,11,16.80
2015,08,05,13,12,16.90
2015,08,05,13,13,16.90
2015,08,05,13,14,17.00
2015,08,05,13,15,17.00
2015,08,05,13,16,17.10
2015,08,05,13,17,17.10
2015,08,05,13,18,17.10
2015,08,05,13,19,17.10
2015,08,05,13,20,17.10
2015,08,05,13,21,17.10
2015,08,05,13,22,17.00
2015,08,05,13,23,17.00
2015,08,05,13,24,17.00
2015,08,05,13,25,17.00
2015,08,05,13,26,17.10
2015,08,05,13,27,17.10
2015,08,05,13,28,17.10
2015,08,05,13,29,17.00
2015,08,05,13,30,17.00
2015,08,05,13,31,16.90
2015,08,05,13,32,16.80
2015,08,05,13,33,16.70
2015,08,05,13,34,16.70
2015,08,05,13,35,16.60
2015,08,05,13,36,16.60
2015,08,05,13,37,16.50
2015,08,05,13,38,16.40
2015,08,05,13,39,16.40
2015,08,05,13,40,16.30
2015,08,05,13,41,16.30
2015,08,05,13,42,16.30
2015,08,05,13,43,16.30
2015,08,05,13,44,16.20
2015,08,05,13,45,16.20
2015,08,05,13,46,16.20
2015,08,05,13,47,16.20
2015,08,05,13,48,16.20
2015,08,05,13,49,16.10
2015,08,05,13,50,16.10
2015,08,05,13,51,16.10
2015,08,05,13,52,16.10
2015,08,05,13,53,16.00
2015,08,05,13,54,15.90
2015,08,05,13,55,15.90
2015,08,05,13,56,15.80
2015,08,05,13,57,15.80
2015,08,05,13,58,15.80
2015,08,05,13,59,15.70
2015,08,05,14,00,15.70
2015,08,05,14,01,15.70
2015,08,05,14,02,15.70
2015,08,05,14,03,15.70
2015,08,05,14,04,15.70
2015,08,05,14,05,15.70
2015,08,05,14,06,15.70
2015,08,05,14,07,15.60
2015,08,05,14,08,15.60
2015,08,05,14,09,15.60
2015,08,05,14,10,15.50
2015,08,05,14,11,15.50
2015,08,05,14,12,15.40
2015,08,05,14,13,15.40
2015,08,05,14,14,15.40
2015,08,05,14,15,15.30
2015,08,05,14,16,15.30
2015,08,05,14,17,15.30
2015,08,05,14,18,15.30
2015,08,05,14,19,15.30
2015,08,05,14,20,15.30
2015,08,05,14,21,15.30
2015,08,05,14,22,15.30
2015,08,05,14,23,15.40
2015,08,05,14,24,15.40
2015,08,05,14,25,15.50
2015,08,05,14,26,15.60
2015,08,05,14,27,15.70
2015,08,05,14,28,15.70
2015,08,05,14,29,15.80
2015,08,05,14,30,15.80
2015,08,05,14,31,15.80
2015,08,05,14,32,15.80
2015,08,05,14,33,15.90
2015,08,05,14,34,15.90
2015,08,05,14,35,16.00
2015,08,05,14,36,16.10
2015,08,05,14,37,16.10
2015,08,05,14,38,16.20
2015,08,05,14,39,16.20
2015,08,05,14,40,16.20
2015,08,05,14,41,16.30
2015,08,05,14,42,16.30
2015,08,05,14,43,16.40
2015,08,05,14,44,16.40
2015,08,05,14,45,16.50
2015,08,05,14,46,16.60
2015,08,05,14,47,16.60
2015,08,05,14,48,16.70
2015,08,05,14,49,16.70
2015,08,05,14,50,16.70
2015,08,05,14,51,16.70
2015,08,05,14,52,16.70
2015,08,05,14,53,16.70
2015,08,05,14,54,16.70
2015,08,05,14,55,16.60
2015,08,05,14,56,16.70
2015,08,05,14,57,16.70
2015,08,05,14,58,16.70
2015,08,05,14,59,16.80
2015,08,05,15,00,16.80
2015,08,05,15,01,16.90
2015,08,05,15,02,17.00
2015,08,05,15,03,17.10
2015,08,05,15,04,17.20
2015,08,05,15,05,17.30
2015,08,05,15,06,17.30
2015,08,05,15,07,17.40
2015,08,05,15,08,17.40
2015,08,05,15,09,17.40
2015,08,05,15,10,17.40
2015,08,05,15,11,17.50
2015,08,05,15,12,17.40
2015,08,05,15,13,17.50
2015,08,05,15,14,17.40
2015,08,05,15,15,17.40
2015,08,05,15,16,17.40
2015,08,05,15,17,17.40
2015,08,05,15,18,17.50
2015,08,05,15,19,17.50
2015,08,05,15,20,17.60
2015,08,05,15,21,17.50
2015,08,05,15,22,17.50
2015,08,05,15,23,17.50
2015,08,05,15,24,17.50
2015,08,05,15,25,17.40
2015,08,05,15,26,17.40
2015,08,05,15,27,17.40
2015,08,05,15,28,17.40
2015,08,05,15,29,17.40
2015,08,05,15,30,17.40
2015,08,05,15,31,17.30
2015,08,05,15,32,17.30
2015,08,05,15,33,17.30
2015,08,05,15,34,17.30
2015,08,05,15,35,17.30
2015,08,05,15,36,17.30
2015,08,05,15,37,17.30
2015,08,05,15,38,17.40
2015,08,05,15,39,17.40
2015,08,05,15,40,17.50
2015,08,05,15,41,17.50
2015,08,05,15,42,17.60
2015,08,05,15,43,17.60
2015,08,05,15,44,17.70
2015,08,05,15,45,17.70
2015,08,05,15,46,17.70
2015,08,05,15,47,17.80
2015,08,05,15,48,17.80
2015,08,05,15,49,17.80
2015,08,05,15,50,17.80
2015,08,05,15,51,17.80
2015,08,05,15,52,17.80
2015,08,05,15,53,17.80
2015,08,05,15,54,17.90
2015,08,05,15,55,17.90
2015,08,05,15,56,18.00
2015,08,05,15,57,18.20
2015,08,05,15,58,18.30
2015,08,05,15,59,18.30
2015,08,05,16,00,18.40
2015,08,05,16,01,18.40
2015,08,05,16,02,18.40
2015,08,05,16,03,18.50
2015,08,05,16,04,18.40
2015,08,05,16,05,18.50
2015,08,05,16,06,18.40
2015,08,05,16,07,18.40
2015,08,05,16,08,18.40
2015,08,05,16,09,18.40
2015,08,05,16,10,18.40
2015,08,05,16,11,18.40
2015,08,05,16,12,18.40
2015,08,05,16,13,18.40
2015,08,05,16,14,18.40
2015,08,05,16,15,18.30
2015,08,05,16,16,18.30
2015,08,05,16,17,18.30
2015,08,05,16,18,18.20
2015,08,05,16,19,18.20
2015,08,05,16,20,18.10
2015,08,05,16,21,18.00
2015,08,05,16,22,18.00
2015,08,05,16,23,17.90
2015,08,05,16,24,17.90
2015,08,05,16,25,17.80
2015,08,05,16,26,17.80
2015,08,05,16,27,17.80
2015,08,05,16,28,17.70
2015,08,05,16,29,17.60
2015,08,05,16,30,17.60
2015,08,05,16,31,17.50
2015,08,05,16,32,17.50
2015,08,05,16,33,17.40
2015,08,05,16,34,17.40
2015,08,05,16,35,17.40
2015,08,05,16,36,17.30
2015,08,05,16,37,17.30
2015,08,05,16,38,17.30
2015,08,05,16,39,17.30
2015,08,05,16,40,17.30
2015,08,05,16,41,17.30
2015,08,05,16,42,17.30
2015,08,05,16,43,17.30
2015,08,05,16,44,17.30
2015,08,05,16,45,17.30
2015,08,05,16,46,17.20
2015,08,05,16,47,17.20
2015,08,05,16,48,17.20
2015,08,05,16,49,17.20
2015,08,05,16,50,17.20
2015,08,05,16,51,17.20
2015,08,05,16,52,17.10
2015,08,05,16,53,17.10
2015,08,05,16,54,17.10
2015,08,05,16,55,17.10
2015,08,05,16,56,17.10
2015,08,05,16,57,17.10
2015,08,05,16,58,17.10
2015,08,05,16,59,17.10
2015,08,05,17,00,17.10
2015,08,05,17,01,17.10
2015,08,05,17,02,17.10
2015,08,05,17,03,17.10
2015,08,05,17,04,17.10
2015,08,05,17,05,17.10
2015,08,05,17,06,17.10
2015,08,05,17,07,17.20
2015,08,05,17,08,17.20
2015,08,05,17,09,17.30
2015,08,05,17,10,17.40
2015,08,05,17,11,17.40
2015,08,05,17,12,17.50
2015,08,05,17,13,17.60
2015,08,05,17,14,17.70
2015,08,05,17,15,17.70
2015,08,05,17,16,17.70
2015,08,05,17,17,17.70
2015,08,05,17,18,17.70
2015,08,05,17,19,17.70
2015,08,05,17,20,17.70
2015,08,05,17,21,17.70
2015,08,05,17,22,17.70
2015,08,05,17,23,17.70
2015,08,05,17,24,17.80
2015,08,05,17,25,17.80
2015,08,05,17,26,17.80
2015,08,05,17,27,17.80
2015,08,05,17,28,17.70
2015,08,05,17,29,17.70
2015,08,05,17,30,17.70
2015,08,05,17,31,17.80
2015,08,05,17,32,17.70
2015,08,05,17,33,17.70
2015,08,05,17,34,17.70
2015,08,05,17,35,17.70
2015,08,05,17,36,17.70
2015,08,05,17,37,17.70
2015,08,05,17,38,17.80
2015,08,05,17,39,17.80
2015,08,05,17,40,17.80
2015,08,05,17,41,17.80
2015,08,05,17,42,17.90
2015,08,05,17,43,17.90
2015,08,05,17,44,17.90
2015,08,05,17,45,18.00
2015,08,05,17,46,18.10
2015,08,05,17,47,18.20
2015,08,05,17,48,18.20
2015,08,05,17,49,18.30
2015,08,05,17,50,18.40
2015,08,05,17,51,18.40
2015,08,05,17,52,18.50
2015,08,05,17,53,18.60
2015,08,05,17,54,18.60
2015,08,05,17,55,18.70
2015,08,05,17,56,18.80
2015,08,05,17,57,18.90
2015,08,05,17,58,18.90
2015,08,05,17,59,19.00
2015,08,05,18,00,19.10
2015,08,05,18,01,19.10
2015,08,05,18,02,19.20
2015,08,05,18,03,19.20
2015,08,05,18,04,19.10
2015,08,05,18,05,19.10
2015,08,05,18,06,19.10
2015,08,05,18,07,19.00
2015,08,05,18,08,18.90
2015,08,05,18,09,18.90
2015,08,05,18,10,18.80
2015,08,05,18,11,18.70
2015,08,05,18,12,18.70
2015,08,05,18,13,18.60
2015,08,05,18,14,18.50
2015,08,05,18,15,18.40
2015,08,05,18,16,18.40
2015,08,05,18,17,18.30